Regional Weather Roundup
Issued by NWS

Home | Current Version | Previous Version | Text Only | Print | Product List | Glossary Off
Versions: 1 2 3 4 5 6 7 8 9 10 11 12 13 14 15 16 17 18 19 20 21 22 23 24 25 26 27 28 29 30 31 32 33 34 35 36 37 38 39 40 41 42 43 44 45 46 47 48 49 50

000
ASUS45 KABQ 242010
RWRNM
WEATHER ROUNDUP FOR NEW MEXICO
NATIONAL WEATHER SERVICE ALBUQUERQUE NM
200 PM MDT FRI OCT 24 2014

NOTE: "FAIR" MEANS FEW OR NO CLOUDS BELOW 12,000 FEET AGL WITH NO
       SIGNIFICANT WEATHER OR OBSTRUCTIONS TO VISION.

      THIS PRODUCT IS RELEASED AS TWO VERSIONS.  ONE VERSION NEAR
      THE TOP OF THE HOUR CONTAINING PRELIMINARY DATA FROM ALBUQUERQUE
      AND OTHER STATIONS.  A FINAL VERSION WITH ADDITIONAL DATA IS
      ISSUED ABOUT 10 MINUTES AFTER THE HOUR.

NMZ501-503-504-510>518-242100-
NORTHWEST PLATEAU/NORTHCENTRAL MOUNTAINS

CITY           SKY/WX    TMP DP  RH WIND       PRES   REMARKS
FARMINGTON     SUNNY     72  32  23 W3        30.29F
LOS ALAMOS     SUNNY     68  32  26 NE3       30.37F
SANTA FE       SUNNY     74  23  15 N6        30.30F
TAOS           SUNNY     70  27  19 W6        30.35F
ANGEL FIRE     FAIR      69  17  13 W12G17    30.40F

$$
NMZ402-403-502-505>509-242100-
WESTCENTRAL MOUNTAINS/SOUTHWEST MOUNTAINS

CITY           SKY/WX    TMP DP  RH WIND       PRES   REMARKS
GALLUP         SUNNY     72  30  21 VRB6      30.35F
GRANTS         SUNNY     73  28  19 N5        30.35F
SILVER CITY    SUNNY     77  39  25 S5        30.30F

$$
NMZ407-409-411-412-242100-
SOUTHERN DESERTS

CITY           SKY/WX    TMP DP  RH WIND       PRES   REMARKS
LORDSBURG      FAIR      79  43  27 SE5       30.21F
DEMING         SUNNY     80  45  28 VRB3      30.21F
LAS CRUCES     SUNNY     78  44  30 S3        30.24F
HOLLOMAN AFB   SUNNY     78  48  34 CALM      30.20F
T OR C         SUNNY     76  44  32 SW6       30.24F

$$
NMZ519>523-242100-
CENTRAL VALLEYS/CENTRAL HIGHLANDS

CITY           SKY/WX    TMP DP  RH WIND       PRES   REMARKS
ALBUQUERQUE    SUNNY     74  32  21 CALM      30.28F
DOUBLE EAGLE   SUNNY     73  32  21 VRB7      30.31F
MORIARTY ARPT  FAIR      78  24  13 NW12      30.30F
CLINES CORNERS SUNNY     74  23  15 NW18G29   30.31F
BELEN          FAIR      75  35  22 CALM      30.27F
SOCORRO        FAIR      75  38  26 CALM      30.25F

$$
NMZ524>526-539-540-242100-
SOUTHCENTRAL MOUNTAINS

CITY           SKY/WX    TMP DP  RH WIND       PRES   REMARKS
RUIDOSO        SUNNY     72  39  30 NW8G17    30.37F

$$
NMZ527>531-242100-
NORTHEAST HIGHLANDS/NORTHEAST PLAINS

CITY           SKY/WX    TMP DP  RH WIND       PRES   REMARKS
LAS VEGAS      SUNNY     77  27  15 S8        30.27F
RATON          SUNNY     75  27  17 SW7       30.22F
CLAYTON        SUNNY     83  30  14 S14       30.16F

$$
NMZ532>537-242100-
EASTCENTRAL PLAINS

CITY           SKY/WX    TMP DP  RH WIND       PRES   REMARKS
TUCUMCARI      SUNNY     85  35  16 S9        30.11F
CANNON AFB     SUNNY     81  39  22 W15       30.16F
CLOVIS AIRPORT SUNNY     82  37  20 SW15G21   30.18F

$$
NMZ028-029-538-242100-
SOUTHEAST PLAINS

CITY           SKY/WX    TMP DP  RH WIND       PRES   REMARKS
ROSWELL        SUNNY     82  50  32 SE9       30.15F
CARLSBAD       SUNNY     81  55  40 SE8       30.14F
HOBBS          SUNNY     82  46  28 S9        30.18F


$$



USA.gov is the U.S. government's official web portal to all federal, state and local government web resources and services.